QXE848 KSEA-CYXY

Flight info

Callsign QXE848
Flight time N/A
Altitude 26000
Route MONTN2 SEA DCT ALPSE DCT HUH DCT YVR DCT NUTBE DCT KEINN/N0345F250 DCT ELIDI DCT HEIRE/N0343F260 DCT 52N123W 5330N12400W DCT DUXAR DCT DAPAL DAPAL3
Aircraft DH8D/M-SDE2E3FGRY/H

Departure

Time 2026-05-04 20:14
Airport Seattle–Tacoma International Airport (KSEA)

Arrival

Time N/A
Airport Whitehorse / Erik Nielsen International Airport (CYXY)
Time Latitude Longitude Altitude Speed Heading
2026-05-04 19:55 47.44538 -122.30478 392 ft 0 kts 91°
2026-05-04 20:04 47.44538 -122.30483 392 ft 2 kts 91°
2026-05-04 20:04 47.44539 -122.30505 392 ft 2 kts 92°
2026-05-04 20:05 47.44539 -122.30522 392 ft 0 kts 92°
2026-05-04 20:05 47.44536 -122.30538 392 ft 1 kts 43°
2026-05-04 20:05 47.44526 -122.30544 391 ft 1 kts 359°
2026-05-04 20:05 47.44523 -122.30544 391 ft 0 kts 360°
2026-05-04 20:07 47.44532 -122.30544 391 ft 3 kts
2026-05-04 20:07 47.44582 -122.30541 393 ft 8 kts
2026-05-04 20:08 47.44638 -122.30540 394 ft 8 kts
2026-05-04 20:08 47.44690 -122.30542 396 ft 5 kts 358°
2026-05-04 20:08 47.44720 -122.30543 397 ft 3 kts 359°
2026-05-04 20:08 47.44745 -122.30543 398 ft 5 kts
2026-05-04 20:09 47.44803 -122.30540 399 ft 12 kts
2026-05-04 20:09 47.44921 -122.30539 403 ft 20 kts
2026-05-04 20:09 47.45049 -122.30616 408 ft 20 kts 336°
2026-05-04 20:09 47.45188 -122.30626 414 ft 19 kts
2026-05-04 20:10 47.45337 -122.30625 421 ft 22 kts 359°
2026-05-04 20:10 47.45500 -122.30624 426 ft 25 kts
2026-05-04 20:10 47.45672 -122.30622 431 ft 21 kts
2026-05-04 20:10 47.45804 -122.30621 435 ft 16 kts
2026-05-04 20:11 47.45897 -122.30620 439 ft 12 kts
2026-05-04 20:11 47.45967 -122.30619 442 ft 8 kts
2026-05-04 20:11 47.46047 -122.30618 444 ft 14 kts
2026-05-04 20:11 47.46184 -122.30617 442 ft 22 kts
2026-05-04 20:12 47.46286 -122.30705 422 ft 21 kts 266°
2026-05-04 20:12 47.46210 -122.30778 424 ft 0 kts 181°
2026-05-04 20:12 47.46204 -122.30778 424 ft 4 kts 182°
2026-05-04 20:13 47.46017 -122.30781 435 ft 61 kts 181°
2026-05-04 20:13 47.45359 -122.30788 420 ft 122 kts 180°
2026-05-04 20:13 47.44394 -122.30801 500 ft 144 kts 185°
2026-05-04 20:13 47.43400 -122.30872 887 ft 146 kts 184°
2026-05-04 20:14 47.42370 -122.30889 1240 ft 152 kts 182°
2026-05-04 20:14 47.41304 -122.30886 1626 ft 156 kts 181°
2026-05-04 20:14 47.40210 -122.30897 2006 ft 161 kts 185°
2026-05-04 20:14 47.39063 -122.30859 2383 ft 166 kts 169°
2026-05-04 20:15 47.38014 -122.30154 2786 ft 170 kts 144°
2026-05-04 20:15 47.37154 -122.28934 3190 ft 175 kts 128°
2026-05-04 20:15 47.36543 -122.27409 3606 ft 177 kts 111°
2026-05-04 20:15 47.36342 -122.25598 4004 ft 181 kts 83°
2026-05-04 20:16 47.36733 -122.23843 4461 ft 181 kts 55°
2026-05-04 20:16 47.37729 -122.22795 4805 ft 184 kts 12°
2026-05-04 20:16 47.38998 -122.22756 5296 ft 184 kts 355°
2026-05-04 20:16 47.40303 -122.22747 5714 ft 192 kts 11°
2026-05-04 20:17 47.41446 -122.21757 6091 ft 200 kts 46°
2026-05-04 20:17 47.42476 -122.20356 6464 ft 205 kts 25°
2026-05-04 20:17 47.43872 -122.20216 6811 ft 209 kts 345°
2026-05-04 20:17 47.45281 -122.20860 7198 ft 214 kts 346°
2026-05-04 20:18 47.46754 -122.21292 7575 ft 219 kts 352°
2026-05-04 20:18 47.48290 -122.21528 7948 ft 225 kts 357°
2026-05-04 20:18 47.49866 -122.21608 8324 ft 230 kts
2026-05-04 20:18 47.51485 -122.21571 8700 ft 235 kts
2026-05-04 20:19 47.53131 -122.21446 9069 ft 240 kts
2026-05-04 20:19 47.54805 -122.21252 9441 ft 244 kts
2026-05-04 20:19 47.56519 -122.21008 9816 ft 248 kts
2026-05-04 20:19 47.58231 -122.20729 10184 ft 251 kts
2026-05-04 20:20 47.59986 -122.20418 10557 ft 254 kts
2026-05-04 20:20 47.61730 -122.20091 10923 ft 256 kts
2026-05-04 20:20 47.63505 -122.19743 11290 ft 258 kts
2026-05-04 20:20 47.65292 -122.19385 11657 ft 259 kts
2026-05-04 20:21 47.67077 -122.19019 12023 ft 260 kts
2026-05-04 20:21 47.68890 -122.18642 12394 ft 260 kts
2026-05-04 20:21 47.72464 -122.17888 13122 ft 260 kts
2026-05-04 20:22 47.74234 -122.17511 13480 ft 259 kts
2026-05-04 20:22 47.76009 -122.17131 13846 ft 259 kts
2026-05-04 20:22 47.77796 -122.16747 14217 ft 258 kts
2026-05-04 20:22 47.79566 -122.16366 14583 ft 256 kts
2026-05-04 20:23 47.81334 -122.15984 14954 ft 255 kts
2026-05-04 20:23 47.83085 -122.15605 15319 ft 253 kts
2026-05-04 20:23 47.84816 -122.15230 15683 ft 251 kts
2026-05-04 20:23 47.86537 -122.14856 16049 ft 249 kts
2026-05-04 20:24 47.88221 -122.14490 16395 ft 247 kts
2026-05-04 20:24 47.89926 -122.14119 16715 ft 247 kts
2026-05-04 20:24 47.91622 -122.13750 17015 ft 246 kts
2026-05-04 20:24 47.93309 -122.13382 17243 ft 248 kts
2026-05-04 20:25 47.95036 -122.13005 17504 ft 249 kts
2026-05-04 20:25 47.96751 -122.12631 17729 ft 250 kts
2026-05-04 20:25 47.98472 -122.12255 18004 ft 251 kts
2026-05-04 20:25 48.00207 -122.11876 18256 ft 252 kts
2026-05-04 20:26 48.01938 -122.11498 18492 ft 253 kts
2026-05-04 20:26 48.03679 -122.11116 18720 ft 254 kts
2026-05-04 20:26 48.05416 -122.10736 18941 ft 254 kts
2026-05-04 20:26 48.07168 -122.10352 19167 ft 254 kts
2026-05-04 20:27 48.08921 -122.09967 19364 ft 256 kts
2026-05-04 20:27 48.10706 -122.09576 19544 ft 257 kts
2026-05-04 20:27 48.12494 -122.09183 19723 ft 259 kts
2026-05-04 20:27 48.14273 -122.08792 19902 ft 261 kts
2026-05-04 20:28 48.16070 -122.08443 20073 ft 262 kts
2026-05-04 20:28 48.17847 -122.08951 20245 ft 261 kts 341°
2026-05-04 20:28 48.19516 -122.09986 20429 ft 261 kts 339°
2026-05-04 20:28 48.21194 -122.11051 20607 ft 262 kts 339°
2026-05-04 20:29 48.22868 -122.12115 20770 ft 262 kts 339°
2026-05-04 20:29 48.24550 -122.13181 20938 ft 261 kts 339°
2026-05-04 20:29 48.26218 -122.14237 21119 ft 261 kts 339°
2026-05-04 20:29 48.27887 -122.15293 21324 ft 260 kts 339°
2026-05-04 20:30 48.29548 -122.16343 21445 ft 261 kts 339°
2026-05-04 20:30 48.31222 -122.17400 21565 ft 262 kts 339°
2026-05-04 20:30 48.32906 -122.18465 21685 ft 262 kts 339°
2026-05-04 20:30 48.34581 -122.19524 21804 ft 262 kts 339°
2026-05-04 20:31 48.36285 -122.20601 21937 ft 262 kts 339°
2026-05-04 20:31 48.37949 -122.21653 22074 ft 262 kts 339°
2026-05-04 20:31 48.39634 -122.22720 22202 ft 262 kts 339°
2026-05-04 20:31 48.41302 -122.23776 22336 ft 261 kts 339°
2026-05-04 20:32 48.42967 -122.24831 22479 ft 261 kts 339°
2026-05-04 20:32 48.44655 -122.25901 22608 ft 260 kts 339°
2026-05-04 20:32 48.46304 -122.26947 22721 ft 259 kts 339°
2026-05-04 20:32 48.47970 -122.28005 22836 ft 258 kts 339°
2026-05-04 20:33 48.49612 -122.29048 22971 ft 257 kts 339°
2026-05-04 20:33 48.51253 -122.30092 23089 ft 255 kts 340°
2026-05-04 20:33 48.52876 -122.31123 23210 ft 254 kts 340°
2026-05-04 20:33 48.54493 -122.32153 23341 ft 253 kts 340°
2026-05-04 20:34 48.56114 -122.33184 23470 ft 252 kts 340°
2026-05-04 20:34 48.57726 -122.34211 23596 ft 251 kts 340°
2026-05-04 20:34 48.59344 -122.35243 23729 ft 250 kts 339°
2026-05-04 20:34 48.60934 -122.36258 23852 ft 248 kts 340°
2026-05-04 20:35 48.62521 -122.37272 23956 ft 247 kts 339°
2026-05-04 20:35 48.64095 -122.38277 24056 ft 245 kts 339°
2026-05-04 20:35 48.65663 -122.39281 24157 ft 244 kts 340°
2026-05-04 20:35 48.67214 -122.40273 24256 ft 242 kts 340°
2026-05-04 20:36 48.68748 -122.41255 24355 ft 241 kts 340°
2026-05-04 20:36 48.70298 -122.42248 24434 ft 240 kts 340°
2026-05-04 20:36 48.71811 -122.43218 24510 ft 239 kts 340°
2026-05-04 20:36 48.73346 -122.44203 24588 ft 237 kts 340°
2026-05-04 20:37 48.74862 -122.45176 24662 ft 236 kts 340°
2026-05-04 20:37 48.76368 -122.46143 24738 ft 235 kts 340°
2026-05-04 20:37 48.77874 -122.47111 24808 ft 233 kts 340°
2026-05-04 20:37 48.79356 -122.48065 24868 ft 233 kts 340°
2026-05-04 20:38 48.80843 -122.49021 24886 ft 233 kts 340°
2026-05-04 20:38 48.82335 -122.49981 24889 ft 234 kts 340°
2026-05-04 20:38 48.83843 -122.50952 24891 ft 236 kts 340°
2026-05-04 20:38 48.85357 -122.51929 24891 ft 237 kts 340°
2026-05-04 20:39 48.86872 -122.52906 24890 ft 238 kts 340°
2026-05-04 20:39 48.88400 -122.53893 24889 ft 239 kts 340°
2026-05-04 20:39 48.89933 -122.54883 24891 ft 240 kts 340°
2026-05-04 20:39 48.91469 -122.55876 24890 ft 241 kts 340°
2026-05-04 20:40 48.93021 -122.56881 24891 ft 243 kts 339°
2026-05-04 20:40 48.94431 -122.58263 24867 ft 248 kts 315°
2026-05-04 20:40 48.95245 -122.60625 24903 ft 256 kts 298°
2026-05-04 20:40 48.95847 -122.63185 24894 ft 258 kts 297°
2026-05-04 20:41 48.96439 -122.65748 24889 ft 259 kts 296°
2026-05-04 20:41 48.97036 -122.68335 24887 ft 260 kts 296°
2026-05-04 20:41 48.97633 -122.70921 24889 ft 260 kts 297°
2026-05-04 20:41 48.98238 -122.73532 24888 ft 262 kts 296°
2026-05-04 20:42 48.98845 -122.76153 24884 ft 263 kts 296°
2026-05-04 20:42 48.99455 -122.78783 24878 ft 264 kts 296°
2026-05-04 20:42 49.00066 -122.81422 24877 ft 265 kts 296°
2026-05-04 20:42 49.00680 -122.84073 24872 ft 266 kts 296°
2026-05-04 20:43 49.01291 -122.86710 24874 ft 267 kts 296°
2026-05-04 20:43 49.01910 -122.89388 24870 ft 268 kts 296°
2026-05-04 20:43 49.02522 -122.92036 24871 ft 269 kts 296°
2026-05-04 20:43 49.03144 -122.94733 24870 ft 270 kts 296°
2026-05-04 20:44 49.03770 -122.97448 24873 ft 271 kts 296°
2026-05-04 20:44 49.04398 -123.00172 24873 ft 273 kts 296°
2026-05-04 20:44 49.05031 -123.02916 24874 ft 276 kts 296°
2026-05-04 20:44 49.05667 -123.05678 24872 ft 279 kts 296°
2026-05-04 20:45 49.06302 -123.08444 24872 ft 281 kts 296°
2026-05-04 20:45 49.06956 -123.11297 24873 ft 284 kts 296°
2026-05-04 20:45 49.07621 -123.14114 24870 ft 284 kts 300°
2026-05-04 20:45 49.08649 -123.16612 24884 ft 277 kts 314°
2026-05-04 20:46 49.09889 -123.18875 24875 ft 279 kts 315°
2026-05-04 20:46 49.11157 -123.21169 24874 ft 282 kts 315°
2026-05-04 20:46 49.12420 -123.23458 24876 ft 285 kts 315°
2026-05-04 20:46 49.13690 -123.25771 24876 ft 287 kts 315°
2026-05-04 20:47 49.14978 -123.28124 24873 ft 289 kts 315°
2026-05-04 20:47 49.16272 -123.30494 24869 ft 291 kts 315°
2026-05-04 20:47 49.17559 -123.32858 24869 ft 292 kts 315°
2026-05-04 20:47 49.18856 -123.35242 24868 ft 293 kts 315°
2026-05-04 20:48 49.20166 -123.37656 24870 ft 297 kts 315°
2026-05-04 20:48 49.21474 -123.40064 24862 ft 298 kts 315°
2026-05-04 20:48 49.22801 -123.42516 24863 ft 298 kts 315°
2026-05-04 20:48 49.24110 -123.44938 24867 ft 298 kts 315°
2026-05-04 20:49 49.25436 -123.47392 24863 ft 298 kts 315°
2026-05-04 20:49 49.26747 -123.49822 24858 ft 298 kts 314°
2026-05-04 20:49 49.28059 -123.52256 24855 ft 298 kts 315°
2026-05-04 20:49 49.29374 -123.54696 24856 ft 298 kts 315°
2026-05-04 20:50 49.30696 -123.57153 24854 ft 297 kts 314°
2026-05-04 20:50 49.32040 -123.59515 24844 ft 294 kts 322°
2026-05-04 20:50 49.33808 -123.60928 24867 ft 283 kts 347°
2026-05-04 20:50 49.35723 -123.61487 24856 ft 284 kts 351°
2026-05-04 20:51 49.37664 -123.61985 24850 ft 284 kts 352°
2026-05-04 20:51 49.39636 -123.62485 24851 ft 284 kts 352°
2026-05-04 20:51 49.41580 -123.62975 24852 ft 284 kts 352°
2026-05-04 20:51 49.43534 -123.63469 24850 ft 284 kts 351°
2026-05-04 20:52 49.45468 -123.63958 24854 ft 283 kts 352°
2026-05-04 20:52 49.47402 -123.64447 24856 ft 283 kts 352°
2026-05-04 20:52 49.49358 -123.64942 24859 ft 282 kts 352°
2026-05-04 20:52 49.51288 -123.65431 24863 ft 281 kts 351°
2026-05-04 20:53 49.53213 -123.65919 24871 ft 281 kts 351°
2026-05-04 20:53 49.55071 -123.66391 24880 ft 280 kts 351°
2026-05-04 20:53 49.56985 -123.66876 24888 ft 280 kts 351°
2026-05-04 20:53 49.58920 -123.67368 24892 ft 279 kts 351°
2026-05-04 20:54 49.60823 -123.67851 24895 ft 279 kts 351°
2026-05-04 20:54 49.62739 -123.68339 24902 ft 279 kts 351°
2026-05-04 20:54 49.64635 -123.68821 24909 ft 278 kts 351°
2026-05-04 20:54 49.66554 -123.69310 24918 ft 277 kts 351°
2026-05-04 20:55 49.68446 -123.69793 24926 ft 276 kts 351°
2026-05-04 20:55 49.70347 -123.70278 24929 ft 276 kts 351°
2026-05-04 20:55 49.72243 -123.70762 24937 ft 275 kts 351°
2026-05-04 20:55 49.74121 -123.71242 24941 ft 274 kts 351°
2026-05-04 20:56 49.75995 -123.71722 24948 ft 274 kts 351°
2026-05-04 20:56 49.77874 -123.72202 24958 ft 273 kts 351°
2026-05-04 20:56 49.79738 -123.72680 24970 ft 272 kts 351°
2026-05-04 20:56 49.81612 -123.72945 24963 ft 271 kts
2026-05-04 20:57 49.83408 -123.72140 24996 ft 271 kts 18°
2026-05-04 20:57 49.85154 -123.71069 24995 ft 271 kts 18°
2026-05-04 20:57 49.86907 -123.69983 24997 ft 270 kts 18°
2026-05-04 20:57 49.88641 -123.68910 25002 ft 269 kts 18°
2026-05-04 20:58 49.90380 -123.67837 25005 ft 268 kts 18°
2026-05-04 20:58 49.92107 -123.66773 25007 ft 267 kts 18°
2026-05-04 20:58 49.93816 -123.65720 25011 ft 266 kts 18°
2026-05-04 20:58 49.95536 -123.64661 25023 ft 265 kts 18°
2026-05-04 20:59 49.97245 -123.63609 25029 ft 264 kts 18°
2026-05-04 20:59 49.98942 -123.62565 25033 ft 262 kts 18°
2026-05-04 20:59 50.00618 -123.61533 25039 ft 261 kts 18°
2026-05-04 20:59 50.02313 -123.60497 25041 ft 260 kts 18°
2026-05-04 21:00 50.03984 -123.59488 25043 ft 260 kts 17°
2026-05-04 21:00 50.05672 -123.58467 25046 ft 259 kts 17°
2026-05-04 21:00 50.07329 -123.57465 25052 ft 257 kts 17°
2026-05-04 21:00 50.08992 -123.56458 25057 ft 256 kts 17°
2026-05-04 21:01 50.10670 -123.55441 25065 ft 255 kts 17°
2026-05-04 21:01 50.12315 -123.54443 25058 ft 255 kts 17°
2026-05-04 21:01 50.13963 -123.53442 25060 ft 255 kts 17°
2026-05-04 21:01 50.15615 -123.52438 25059 ft 255 kts 17°
2026-05-04 21:02 50.17271 -123.51431 25066 ft 254 kts 17°
2026-05-04 21:02 50.18898 -123.50440 25071 ft 254 kts 17°
2026-05-04 21:02 50.20543 -123.49439 25074 ft 253 kts 17°
2026-05-04 21:02 50.22195 -123.48431 25077 ft 253 kts 17°
2026-05-04 21:03 50.23810 -123.47446 25083 ft 252 kts 17°
2026-05-04 21:03 50.25442 -123.46449 25083 ft 252 kts 17°
2026-05-04 21:03 50.27071 -123.45454 25088 ft 251 kts 17°
2026-05-04 21:03 50.28705 -123.44456 25092 ft 251 kts 17°
2026-05-04 21:04 50.30324 -123.43465 25091 ft 250 kts 17°
2026-05-04 21:04 50.31928 -123.42483 25093 ft 249 kts 17°
2026-05-04 21:04 50.33551 -123.41488 25097 ft 249 kts 17°
2026-05-04 21:04 50.35146 -123.40510 25103 ft 248 kts 17°
2026-05-04 21:05 50.36771 -123.39512 25101 ft 248 kts 17°
2026-05-04 21:05 50.38357 -123.38538 25105 ft 247 kts 17°
2026-05-04 21:05 50.39946 -123.37561 25108 ft 247 kts 16°
2026-05-04 21:05 50.41541 -123.36580 25105 ft 246 kts 17°
2026-05-04 21:06 50.43138 -123.35597 25103 ft 246 kts 17°
2026-05-04 21:06 50.44726 -123.34619 25103 ft 245 kts 17°
2026-05-04 21:06 50.46314 -123.33640 25105 ft 244 kts 17°
2026-05-04 21:06 50.47882 -123.32673 25106 ft 243 kts 17°
2026-05-04 21:07 50.49454 -123.31702 25110 ft 243 kts 17°
2026-05-04 21:07 50.51020 -123.30734 25111 ft 242 kts 17°
2026-05-04 21:07 50.52593 -123.29761 25111 ft 241 kts 17°
2026-05-04 21:07 50.54141 -123.28804 25108 ft 240 kts 17°
2026-05-04 21:08 50.55687 -123.27847 25110 ft 239 kts 17°
2026-05-04 21:08 50.57243 -123.26883 25112 ft 239 kts 17°
2026-05-04 21:08 50.58784 -123.25928 25112 ft 238 kts 17°
2026-05-04 21:08 50.60319 -123.24976 25113 ft 237 kts 17°
2026-05-04 21:09 50.61845 -123.24028 25109 ft 236 kts 17°
2026-05-04 21:09 50.63357 -123.23089 25107 ft 235 kts 17°
2026-05-04 21:09 50.64874 -123.22146 25099 ft 234 kts 17°
2026-05-04 21:09 50.66396 -123.21198 25097 ft 234 kts 17°
2026-05-04 21:10 50.67895 -123.20265 25101 ft 232 kts 17°
2026-05-04 21:10 50.69392 -123.19333 25099 ft 231 kts 17°
2026-05-04 21:10 50.70889 -123.18399 25102 ft 230 kts 17°
2026-05-04 21:10 50.72360 -123.17481 25104 ft 229 kts 17°
2026-05-04 21:11 50.73837 -123.16559 25110 ft 227 kts 16°
2026-05-04 21:11 50.75253 -123.15674 25108 ft 226 kts 16°
2026-05-04 21:11 50.76720 -123.14756 25106 ft 225 kts 17°
2026-05-04 21:11 50.78172 -123.13847 25111 ft 224 kts 16°
2026-05-04 21:12 50.79608 -123.12949 25110 ft 222 kts 17°
2026-05-04 21:12 50.81043 -123.12049 25109 ft 221 kts 17°
2026-05-04 21:12 50.82468 -123.11156 25109 ft 219 kts 17°
2026-05-04 21:12 50.83867 -123.10278 25113 ft 218 kts 17°
2026-05-04 21:13 50.85276 -123.09393 25115 ft 216 kts 16°
2026-05-04 21:13 50.86658 -123.08525 25117 ft 214 kts 17°
2026-05-04 21:13 50.88044 -123.07653 25115 ft 212 kts 16°
2026-05-04 21:13 50.89398 -123.06803 25119 ft 210 kts 15°
2026-05-04 21:14 50.90789 -123.06303 25122 ft 201 kts
2026-05-04 21:14 50.92169 -123.06214 25119 ft 201 kts 359°
2026-05-04 21:14 50.93624 -123.06145 25127 ft 214 kts 359°
2026-05-04 21:14 50.95111 -123.06072 25126 ft 213 kts 359°
2026-05-04 21:15 50.96590 -123.05998 25125 ft 212 kts 359°
2026-05-04 21:15 50.98053 -123.05922 25125 ft 212 kts 359°
2026-05-04 21:15 50.99526 -123.05843 25124 ft 211 kts 359°
2026-05-04 21:15 51.00995 -123.05763 25115 ft 211 kts 359°
2026-05-04 21:16 51.02456 -123.05682 25114 ft 210 kts 359°
2026-05-04 21:16 51.03905 -123.05601 25117 ft 208 kts 359°
2026-05-04 21:16 51.05352 -123.05518 25118 ft 207 kts 360°
2026-05-04 21:16 51.06779 -123.05437 25120 ft 206 kts 359°
2026-05-04 21:17 51.08201 -123.05355 25124 ft 205 kts 360°
2026-05-04 21:17 51.09618 -123.05274 25122 ft 203 kts 359°
2026-05-04 21:17 51.11036 -123.05193 25123 ft 202 kts 359°
2026-05-04 21:17 51.12434 -123.05112 25116 ft 202 kts 359°
2026-05-04 21:18 51.13828 -123.05032 25116 ft 201 kts 359°
2026-05-04 21:18 51.15223 -123.04951 25117 ft 201 kts 359°
2026-05-04 21:18 51.16629 -123.04869 25116 ft 200 kts 359°
2026-05-04 21:18 51.18011 -123.04789 25116 ft 199 kts 359°
2026-05-04 21:19 51.19385 -123.04709 25114 ft 198 kts 359°
2026-05-04 21:19 51.20761 -123.04628 25111 ft 198 kts 359°
2026-05-04 21:19 51.22141 -123.04548 25128 ft 196 kts 359°
2026-05-04 21:19 51.23517 -123.04467 25112 ft 199 kts 359°
2026-05-04 21:20 51.24904 -123.04385 25091 ft 200 kts 359°
2026-05-04 21:20 51.26302 -123.04302 25099 ft 205 kts 360°
2026-05-04 21:20 51.27725 -123.04218 25113 ft 204 kts 360°
2026-05-04 21:20 51.29144 -123.04134 25113 ft 203 kts 359°
2026-05-04 21:21 51.30541 -123.04052 25106 ft 203 kts 359°
2026-05-04 21:21 51.31952 -123.03969 25101 ft 203 kts 359°
2026-05-04 21:21 51.33357 -123.03886 25101 ft 202 kts 359°
2026-05-04 21:21 51.34752 -123.03804 25102 ft 202 kts 359°
2026-05-04 21:22 51.36150 -123.03722 25106 ft 201 kts 359°
2026-05-04 21:22 51.37562 -123.03639 25105 ft 200 kts 359°
2026-05-04 21:22 51.38934 -123.03558 25104 ft 200 kts 359°
2026-05-04 21:22 51.40334 -123.03476 25103 ft 200 kts 359°
2026-05-04 21:23 51.41712 -123.03394 25102 ft 199 kts 359°
2026-05-04 21:23 51.43096 -123.03313 25093 ft 199 kts 359°
2026-05-04 21:23 51.44479 -123.03232 25016 ft 203 kts 359°
2026-05-04 21:23 51.45956 -123.03149 24693 ft 218 kts 359°
2026-05-04 21:24 51.47510 -123.03061 24334 ft 233 kts 359°
2026-05-04 21:24 51.49178 -123.02966 23968 ft 248 kts 359°
2026-05-04 21:24 51.50944 -123.02865 23600 ft 263 kts 360°
2026-05-04 21:24 51.52801 -123.02756 23387 ft 271 kts 360°
2026-05-04 21:25 51.54702 -123.02643 23237 ft 276 kts 360°
2026-05-04 21:25 51.56625 -123.02528 23120 ft 280 kts 360°
2026-05-04 21:25 51.58587 -123.02411 23088 ft 280 kts 359°
2026-05-04 21:25 51.60523 -123.02295 23081 ft 280 kts 360°
2026-05-04 21:26 51.62452 -123.02179 23084 ft 279 kts 360°
2026-05-04 21:26 51.64402 -123.02063 23080 ft 279 kts 359°
2026-05-04 21:26 51.66323 -123.01949 23074 ft 278 kts 359°
2026-05-04 21:26 51.68256 -123.01833 23069 ft 278 kts 359°
2026-05-04 21:27 51.70185 -123.01718 23059 ft 278 kts 359°
2026-05-04 21:27 51.72120 -123.01604 23052 ft 278 kts 359°
2026-05-04 21:27 51.74060 -123.01488 23048 ft 278 kts 359°
2026-05-04 21:27 51.75997 -123.01372 23044 ft 278 kts 359°
2026-05-04 21:28 51.77911 -123.01257 23040 ft 278 kts 360°
2026-05-04 21:28 51.79852 -123.01142 23041 ft 278 kts 359°
2026-05-04 21:28 51.81770 -123.01027 23039 ft 278 kts 360°
2026-05-04 21:28 51.83691 -123.00912 23041 ft 277 kts 360°
2026-05-04 21:29 51.85627 -123.00796 23035 ft 277 kts 360°
2026-05-04 21:29 51.87553 -123.00680 23039 ft 277 kts 359°
2026-05-04 21:29 51.89456 -123.00566 23042 ft 277 kts 360°
2026-05-04 21:29 51.91393 -123.00450 23037 ft 277 kts 359°
2026-05-04 21:30 51.93310 -123.00335 23035 ft 277 kts 359°
2026-05-04 21:30 51.95233 -123.00220 23032 ft 277 kts 359°
2026-05-04 21:30 51.97157 -123.00104 23038 ft 277 kts 359°
2026-05-04 21:30 51.99718 -123.00028 23025 ft 275 kts 353°
2026-05-04 21:31 52.02712 -123.01589 23025 ft 273 kts 338°
2026-05-04 21:31 52.04478 -123.02741 23025 ft 273 kts 339°
2026-05-04 21:31 52.06230 -123.03886 23031 ft 273 kts 338°
2026-05-04 21:32 52.07987 -123.05032 23030 ft 273 kts 339°
2026-05-04 21:32 52.09747 -123.06177 23034 ft 273 kts 339°
2026-05-04 21:32 52.11539 -123.07340 23036 ft 274 kts 339°
2026-05-04 21:32 52.13300 -123.08484 23035 ft 275 kts 339°
2026-05-04 21:33 52.15080 -123.09638 23036 ft 276 kts 339°
2026-05-04 21:33 52.16871 -123.10800 23038 ft 276 kts 339°
2026-05-04 21:33 52.18650 -123.11955 23041 ft 276 kts 339°
2026-05-04 21:33 52.20427 -123.13110 23044 ft 277 kts 339°
2026-05-04 21:34 52.22203 -123.14262 23043 ft 277 kts 339°
2026-05-04 21:34 52.24012 -123.15439 23046 ft 277 kts 339°
2026-05-04 21:34 52.25790 -123.16595 23046 ft 278 kts 339°
2026-05-04 21:34 52.27571 -123.17754 23049 ft 278 kts 339°
2026-05-04 21:35 52.29380 -123.18933 23049 ft 278 kts 339°
2026-05-04 21:35 52.31179 -123.20106 23051 ft 278 kts 339°
2026-05-04 21:35 52.32973 -123.21276 23047 ft 278 kts 339°
2026-05-04 21:35 52.34761 -123.22444 23051 ft 279 kts 339°
2026-05-04 21:36 52.36563 -123.23622 23044 ft 279 kts 339°
2026-05-04 21:36 52.38352 -123.24792 23043 ft 279 kts 339°
2026-05-04 21:36 52.40148 -123.25969 23044 ft 279 kts 339°
2026-05-04 21:36 52.41948 -123.27148 23044 ft 279 kts 339°
2026-05-04 21:37 52.43754 -123.28333 23043 ft 279 kts 339°
2026-05-04 21:37 52.45537 -123.29503 23040 ft 279 kts 339°
2026-05-04 21:37 52.47337 -123.30685 23040 ft 279 kts 339°
2026-05-04 21:37 52.49158 -123.31883 23042 ft 280 kts 339°
2026-05-04 21:38 52.50959 -123.33068 23041 ft 280 kts 339°
2026-05-04 21:38 52.52767 -123.34260 23043 ft 280 kts 339°
2026-05-04 21:38 52.54563 -123.35444 23044 ft 280 kts 339°
2026-05-04 21:38 52.56347 -123.36620 23045 ft 279 kts 339°
2026-05-04 21:39 52.58162 -123.37820 23045 ft 279 kts 339°
2026-05-04 21:39 52.59946 -123.39000 23046 ft 279 kts 339°
2026-05-04 21:39 52.61760 -123.40199 23047 ft 279 kts 339°
2026-05-04 21:39 52.63546 -123.41383 23051 ft 279 kts 339°
2026-05-04 21:40 52.65356 -123.42583 23052 ft 279 kts 339°
2026-05-04 21:40 52.67151 -123.43773 23051 ft 279 kts 339°
2026-05-04 21:40 52.68946 -123.44965 23053 ft 279 kts 339°
2026-05-04 21:40 52.70736 -123.46155 23052 ft 279 kts 339°
2026-05-04 21:41 52.72547 -123.47360 23057 ft 279 kts 338°
2026-05-04 21:41 52.74343 -123.48556 23058 ft 279 kts 339°
2026-05-04 21:41 52.76143 -123.49755 23058 ft 279 kts 339°
2026-05-04 21:41 52.77937 -123.50951 23057 ft 279 kts 339°
2026-05-04 21:42 52.79738 -123.52155 23051 ft 279 kts 339°
2026-05-04 21:42 52.81539 -123.53358 23055 ft 279 kts 339°
2026-05-04 21:42 52.83328 -123.54554 23054 ft 279 kts 339°
2026-05-04 21:42 52.85128 -123.55759 23056 ft 279 kts 339°
2026-05-04 21:43 52.86923 -123.56962 23051 ft 280 kts 339°
2026-05-04 21:43 52.88731 -123.58174 23048 ft 280 kts 338°
2026-05-04 21:43 52.90545 -123.59391 23054 ft 280 kts 338°
2026-05-04 21:43 52.92338 -123.60596 23055 ft 280 kts 339°
2026-05-04 21:44 52.94127 -123.61799 23059 ft 279 kts 338°
2026-05-04 21:44 52.95925 -123.63010 23058 ft 279 kts 338°
2026-05-04 21:44 52.97716 -123.64216 23055 ft 279 kts 338°
2026-05-04 21:44 52.99532 -123.65440 23053 ft 279 kts 338°
2026-05-04 21:45 53.01317 -123.66646 23054 ft 279 kts 338°
2026-05-04 21:45 53.03120 -123.67863 23053 ft 279 kts 338°
2026-05-04 21:45 53.04903 -123.69069 23058 ft 279 kts 338°
2026-05-04 21:45 53.06721 -123.70299 23056 ft 280 kts 338°
2026-05-04 21:46 53.08517 -123.71515 23052 ft 280 kts 338°
2026-05-04 21:46 53.10323 -123.72739 23052 ft 280 kts 338°
2026-05-04 21:46 53.12133 -123.73968 23049 ft 281 kts 338°
2026-05-04 21:46 53.13940 -123.75195 23051 ft 281 kts 338°
2026-05-04 21:47 53.15743 -123.76421 23049 ft 281 kts 338°
2026-05-04 21:47 53.17556 -123.77654 23050 ft 282 kts 338°
2026-05-04 21:47 53.19353 -123.78877 23047 ft 282 kts 338°
2026-05-04 21:47 53.21178 -123.80122 23050 ft 282 kts 338°
2026-05-04 21:48 53.22989 -123.81357 23051 ft 283 kts 338°
2026-05-04 21:48 53.24820 -123.82608 23047 ft 283 kts 338°
2026-05-04 21:48 53.26616 -123.83836 23045 ft 283 kts 338°
2026-05-04 21:48 53.28450 -123.85091 23048 ft 283 kts 338°
2026-05-04 21:49 53.30278 -123.86342 23049 ft 283 kts 338°
2026-05-04 21:49 53.32091 -123.87585 23049 ft 283 kts 338°
2026-05-04 21:49 53.33898 -123.88824 23051 ft 283 kts 338°
2026-05-04 21:49 53.35735 -123.90086 23051 ft 284 kts 338°
2026-05-04 21:50 53.37545 -123.91330 23046 ft 284 kts 338°
2026-05-04 21:50 53.39381 -123.92592 23047 ft 284 kts 338°
2026-05-04 21:50 53.41202 -123.93847 23049 ft 284 kts 338°
2026-05-04 21:50 53.43020 -123.95100 23049 ft 284 kts 338°
2026-05-04 21:51 53.44833 -123.96351 23046 ft 284 kts 338°
2026-05-04 21:51 53.46661 -123.97613 23049 ft 284 kts 338°
2026-05-04 21:51 53.48479 -123.98870 23049 ft 283 kts 338°
2026-05-04 21:51 53.50248 -124.00309 23033 ft 284 kts 328°
2026-05-04 21:52 53.51772 -124.02396 23048 ft 285 kts 321°
2026-05-04 21:52 53.53740 -124.05336 23044 ft 285 kts 321°
2026-05-04 21:52 53.54725 -124.06810 23054 ft 284 kts 321°
2026-05-04 21:52 53.56199 -124.09014 23053 ft 285 kts 321°
2026-05-04 21:53 53.57684 -124.11230 23053 ft 285 kts 321°
2026-05-04 21:53 53.59161 -124.13434 23058 ft 285 kts 321°
2026-05-04 21:53 53.60637 -124.15635 23053 ft 286 kts 321°
2026-05-04 21:53 53.62121 -124.17848 23056 ft 286 kts 321°
2026-05-04 21:54 53.63609 -124.20068 23051 ft 286 kts 321°
2026-05-04 21:54 53.65081 -124.22265 23051 ft 286 kts 321°
2026-05-04 21:54 53.66576 -124.24497 23053 ft 286 kts 321°
2026-05-04 21:54 53.68063 -124.26718 23051 ft 286 kts 321°
2026-05-04 21:55 53.69552 -124.28945 23052 ft 286 kts 321°
2026-05-04 21:55 53.71032 -124.31160 23051 ft 286 kts 321°
2026-05-04 21:55 53.72517 -124.33385 23051 ft 286 kts 321°
2026-05-04 21:55 53.73982 -124.35581 23053 ft 286 kts 321°
2026-05-04 21:56 53.75467 -124.37809 23052 ft 286 kts 321°
2026-05-04 21:56 53.76955 -124.40044 23052 ft 286 kts 321°
2026-05-04 21:56 53.78435 -124.42271 23047 ft 286 kts 321°
2026-05-04 21:56 53.79917 -124.44500 23051 ft 286 kts 321°
2026-05-04 21:57 53.81399 -124.46732 23046 ft 286 kts 321°
2026-05-04 21:57 53.82869 -124.48948 23048 ft 286 kts 321°
2026-05-04 21:57 53.84347 -124.51179 23045 ft 286 kts 321°
2026-05-04 21:57 53.85836 -124.53427 23045 ft 286 kts 321°
2026-05-04 21:58 53.87317 -124.55666 23045 ft 286 kts 321°
2026-05-04 21:58 53.88786 -124.57891 23049 ft 286 kts 321°
2026-05-04 21:58 53.90277 -124.60149 23049 ft 286 kts 321°
2026-05-04 21:58 53.91764 -124.62405 23048 ft 286 kts 321°
2026-05-04 21:59 53.93240 -124.64646 23048 ft 287 kts 321°
2026-05-04 21:59 53.94731 -124.66911 23047 ft 287 kts 320°
2026-05-04 21:59 53.96209 -124.69159 23046 ft 287 kts 320°
2026-05-04 21:59 53.97709 -124.71442 23047 ft 287 kts 320°
2026-05-04 22:00 53.99178 -124.73682 23050 ft 288 kts 320°
2026-05-04 22:00 54.00675 -124.75966 23050 ft 288 kts 320°
2026-05-04 22:00 54.02171 -124.78250 23053 ft 288 kts 320°
2026-05-04 22:00 54.03646 -124.80506 23049 ft 288 kts 320°
2026-05-04 22:01 54.05127 -124.82771 23049 ft 289 kts 320°
2026-05-04 22:01 54.06635 -124.85081 23050 ft 289 kts 320°
2026-05-04 22:01 54.08109 -124.87342 23044 ft 289 kts 320°
2026-05-04 22:01 54.09609 -124.89645 23039 ft 289 kts 320°
2026-05-04 22:02 54.11095 -124.91928 23041 ft 289 kts 320°
2026-05-04 22:02 54.12599 -124.94241 23037 ft 290 kts 320°
2026-05-04 22:02 54.14095 -124.96544 23040 ft 290 kts 320°
2026-05-04 22:02 54.15587 -124.98843 23039 ft 291 kts 320°
2026-05-04 22:03 54.17094 -125.01169 23040 ft 291 kts 320°
2026-05-04 22:03 54.18586 -125.03471 23036 ft 291 kts 320°
2026-05-04 22:03 54.20083 -125.05786 23039 ft 291 kts 320°
2026-05-04 22:03 54.21573 -125.08092 23038 ft 291 kts 320°
2026-05-04 22:04 54.23075 -125.10420 23040 ft 292 kts 320°
2026-05-04 22:04 54.24575 -125.12744 23041 ft 292 kts 320°
2026-05-04 22:04 54.26067 -125.15060 23045 ft 292 kts 320°
2026-05-04 22:04 54.27575 -125.17403 23044 ft 292 kts 320°
2026-05-04 22:05 54.29072 -125.19733 23047 ft 292 kts 320°
2026-05-04 22:05 54.30562 -125.22053 23049 ft 292 kts 319°
2026-05-04 22:05 54.32063 -125.24392 23051 ft 292 kts 320°
2026-05-04 22:05 54.33565 -125.26735 23054 ft 292 kts 320°
2026-05-04 22:06 54.35065 -125.29077 23053 ft 292 kts 320°
2026-05-04 22:06 54.36549 -125.31400 23049 ft 292 kts 320°
2026-05-04 22:06 54.38058 -125.33761 23047 ft 292 kts 320°
2026-05-04 22:06 54.39548 -125.36095 23047 ft 292 kts 320°
2026-05-04 22:07 54.41030 -125.38419 23050 ft 292 kts 320°
2026-05-04 22:07 54.42532 -125.40776 23048 ft 292 kts 320°
2026-05-04 22:07 54.44030 -125.43132 23049 ft 292 kts 320°
2026-05-04 22:07 54.45514 -125.45467 23053 ft 292 kts 320°
2026-05-04 22:08 54.47026 -125.47846 23048 ft 292 kts 320°
2026-05-04 22:08 54.48517 -125.50196 23052 ft 292 kts 320°
2026-05-04 22:08 54.49992 -125.52525 23055 ft 292 kts 320°
2026-05-04 22:08 54.51489 -125.54890 23051 ft 292 kts 319°
2026-05-04 22:09 54.52986 -125.57257 23046 ft 292 kts 319°
2026-05-04 22:09 54.54482 -125.59625 23049 ft 292 kts 319°
2026-05-04 22:09 54.55955 -125.61959 23050 ft 291 kts 319°
2026-05-04 22:09 54.57441 -125.64317 23048 ft 291 kts 320°
2026-05-04 22:10 54.58951 -125.66715 23047 ft 292 kts 319°
2026-05-04 22:10 54.60429 -125.69064 23047 ft 292 kts 319°
2026-05-04 22:10 54.61913 -125.71428 23048 ft 292 kts 319°
2026-05-04 22:10 54.63413 -125.73815 23046 ft 292 kts 319°
2026-05-04 22:11 54.64895 -125.76179 23051 ft 292 kts 319°
2026-05-04 22:11 54.66386 -125.78559 23050 ft 292 kts 319°
2026-05-04 22:11 54.67882 -125.80948 23047 ft 292 kts 319°
2026-05-04 22:11 54.69375 -125.83337 23048 ft 292 kts 319°
2026-05-04 22:12 54.70855 -125.85706 23045 ft 293 kts 319°
2026-05-04 22:12 54.72339 -125.88084 23044 ft 293 kts 318°
2026-05-04 22:12 54.74324 -125.91272 23045 ft 293 kts 318°
2026-05-04 22:12 54.75323 -125.92876 23045 ft 292 kts 319°
2026-05-04 22:13 54.76810 -125.95268 23045 ft 292 kts 318°
2026-05-04 22:13 54.78278 -125.97631 23043 ft 292 kts 319°
2026-05-04 22:13 54.79768 -126.00031 23041 ft 292 kts 319°
2026-05-04 22:13 54.81265 -126.02445 23043 ft 293 kts 319°
2026-05-04 22:14 54.82737 -126.04823 23047 ft 293 kts 319°
2026-05-04 22:14 54.84227 -126.07231 23051 ft 293 kts 319°
2026-05-04 22:14 54.85709 -126.09629 23046 ft 293 kts 319°
2026-05-04 22:14 54.87185 -126.12021 23048 ft 293 kts 318°
2026-05-04 22:15 54.88676 -126.14439 23053 ft 293 kts 318°
2026-05-04 22:15 54.90167 -126.16858 23052 ft 293 kts 318°
2026-05-04 22:15 54.91631 -126.19237 23053 ft 292 kts 318°
2026-05-04 22:15 54.93112 -126.21646 23052 ft 292 kts 318°
2026-05-04 22:16 54.94591 -126.24055 23047 ft 292 kts 318°
2026-05-04 22:16 54.96077 -126.26477 23051 ft 292 kts 318°
2026-05-04 22:16 54.97551 -126.28884 23051 ft 292 kts 318°
2026-05-04 22:16 54.99042 -126.31319 23053 ft 292 kts 318°
2026-05-04 22:17 55.00526 -126.33746 23058 ft 292 kts 318°
2026-05-04 22:17 55.01999 -126.36157 23063 ft 292 kts 318°
2026-05-04 22:17 55.03468 -126.38565 23062 ft 292 kts 318°
2026-05-04 22:17 55.04955 -126.41003 23064 ft 292 kts 318°
2026-05-04 22:18 55.06417 -126.43407 23064 ft 292 kts 318°
2026-05-04 22:18 55.07906 -126.45853 23062 ft 293 kts 318°
2026-05-04 22:18 55.09370 -126.48263 23064 ft 292 kts 318°
2026-05-04 22:18 55.10845 -126.50693 23068 ft 293 kts 318°
2026-05-04 22:19 55.12337 -126.53154 23065 ft 293 kts 318°
2026-05-04 22:19 55.13832 -126.55622 23065 ft 293 kts 318°
2026-05-04 22:19 55.15302 -126.58053 23067 ft 294 kts 318°
2026-05-04 22:19 55.16785 -126.60506 23069 ft 294 kts 318°
2026-05-04 22:20 55.18264 -126.62956 23070 ft 294 kts 318°
2026-05-04 22:20 55.19759 -126.65435 23074 ft 295 kts 317°
2026-05-04 22:20 55.21247 -126.67905 23077 ft 295 kts 317°
2026-05-04 22:20 55.22719 -126.70351 23078 ft 295 kts 317°
2026-05-04 22:21 55.24217 -126.72843 23078 ft 295 kts 317°
2026-05-04 22:21 55.25686 -126.75290 23081 ft 295 kts 317°
2026-05-04 22:21 55.27174 -126.77771 23085 ft 295 kts 317°
2026-05-04 22:21 55.28664 -126.80259 23087 ft 295 kts 317°
2026-05-04 22:22 55.30156 -126.82750 23090 ft 295 kts 317°
2026-05-04 22:22 55.31625 -126.85207 23096 ft 295 kts 317°
2026-05-04 22:22 55.33109 -126.87694 23096 ft 295 kts 317°
2026-05-04 22:22 55.34597 -126.90188 23092 ft 295 kts 317°
2026-05-04 22:23 55.36063 -126.92648 23091 ft 295 kts 317°
2026-05-04 22:23 55.37546 -126.95139 23095 ft 295 kts 317°
2026-05-04 22:23 55.39035 -126.97643 23095 ft 295 kts 317°
2026-05-04 22:23 55.40499 -127.00107 23093 ft 295 kts 317°
2026-05-04 22:24 55.41988 -127.02617 23093 ft 295 kts 317°
2026-05-04 22:24 55.43453 -127.05089 23094 ft 295 kts 317°
2026-05-04 22:24 55.44936 -127.07595 23099 ft 295 kts 317°
2026-05-04 22:24 55.46413 -127.10091 23103 ft 295 kts 317°
2026-05-04 22:25 55.47885 -127.12584 23101 ft 295 kts 317°
2026-05-04 22:25 55.49358 -127.15080 23102 ft 295 kts 317°
2026-05-04 22:25 55.50837 -127.17590 23100 ft 295 kts 317°
2026-05-04 22:25 55.52312 -127.20094 23100 ft 295 kts 317°
2026-05-04 22:26 55.53785 -127.22600 23096 ft 295 kts 317°
2026-05-04 22:26 55.55260 -127.25109 23101 ft 295 kts 317°
2026-05-04 22:26 55.56733 -127.27620 23100 ft 295 kts 317°
2026-05-04 22:26 55.58206 -127.30132 23099 ft 295 kts 317°
2026-05-04 22:27 55.59678 -127.32646 23103 ft 295 kts 317°
2026-05-04 22:27 55.61150 -127.35163 23104 ft 295 kts 317°
2026-05-04 22:27 55.62620 -127.37680 23105 ft 295 kts 317°
2026-05-04 22:27 55.64088 -127.40195 23101 ft 295 kts 316°
2026-05-04 22:28 55.65542 -127.42689 23099 ft 295 kts 316°
2026-05-04 22:28 55.67010 -127.45209 23099 ft 295 kts 316°
2026-05-04 22:28 55.68483 -127.47741 23100 ft 295 kts 316°
2026-05-04 22:28 55.69949 -127.50263 23102 ft 295 kts 316°
2026-05-04 22:29 55.71415 -127.52790 23101 ft 295 kts 316°
2026-05-04 22:29 55.72896 -127.55344 23097 ft 295 kts 316°
2026-05-04 22:29 55.74358 -127.57869 23092 ft 295 kts 316°
2026-05-04 22:29 55.75821 -127.60397 23094 ft 295 kts 316°
2026-05-04 22:30 55.77285 -127.62931 23095 ft 294 kts 316°
2026-05-04 22:30 55.78753 -127.65473 23092 ft 294 kts 315°
2026-05-04 22:30 55.80205 -127.67992 23088 ft 295 kts 316°
2026-05-04 22:30 55.81669 -127.70534 23089 ft 295 kts 316°
2026-05-04 22:31 55.83136 -127.73083 23088 ft 295 kts 315°
2026-05-04 22:31 55.84604 -127.75637 23087 ft 296 kts 315°
2026-05-04 22:31 55.86070 -127.78191 23087 ft 296 kts 315°
2026-05-04 22:31 55.87546 -127.80765 23087 ft 297 kts 315°
2026-05-04 22:32 55.89023 -127.83343 23084 ft 297 kts 315°
2026-05-04 22:32 55.90492 -127.85912 23080 ft 297 kts 315°
2026-05-04 22:32 55.91970 -127.88498 23080 ft 297 kts 315°
2026-05-04 22:32 55.93435 -127.91065 23079 ft 297 kts 315°
2026-05-04 22:33 55.94901 -127.93635 23078 ft 297 kts 315°
2026-05-04 22:33 55.96378 -127.96228 23076 ft 297 kts 315°
2026-05-04 22:33 55.97846 -127.98809 23079 ft 297 kts 315°
2026-05-04 22:33 55.99309 -128.01384 23079 ft 297 kts 315°
2026-05-04 22:34 56.00772 -128.03961 23076 ft 297 kts 315°
2026-05-04 22:34 56.02239 -128.06547 23079 ft 297 kts 315°
2026-05-04 22:34 56.03705 -128.09137 23080 ft 297 kts 315°
2026-05-04 22:34 56.05167 -128.11720 23082 ft 297 kts 315°
2026-05-04 22:35 56.06633 -128.14316 23084 ft 298 kts 315°
2026-05-04 22:35 56.08096 -128.16907 23085 ft 298 kts 315°
2026-05-04 22:35 56.09580 -128.19539 23082 ft 298 kts 315°
2026-05-04 22:35 56.11044 -128.22139 23088 ft 298 kts 315°
2026-05-04 22:36 56.12511 -128.24747 23089 ft 298 kts 315°
2026-05-04 22:36 56.13980 -128.27362 23086 ft 299 kts 315°
2026-05-04 22:36 56.15446 -128.29974 23089 ft 299 kts 314°
2026-05-04 22:36 56.16930 -128.32622 23090 ft 299 kts 315°
2026-05-04 22:37 56.18402 -128.35249 23090 ft 299 kts 315°
2026-05-04 22:37 56.19873 -128.37882 23091 ft 299 kts 315°
2026-05-04 22:37 56.21347 -128.40518 23092 ft 300 kts 314°
2026-05-04 22:37 56.22819 -128.43158 23089 ft 300 kts 314°
2026-05-04 22:38 56.24296 -128.45807 23089 ft 300 kts 314°
2026-05-04 22:38 56.25768 -128.48451 23091 ft 300 kts 314°
2026-05-04 22:38 56.27242 -128.51100 23090 ft 300 kts 314°
2026-05-04 22:38 56.28715 -128.53754 23084 ft 300 kts 314°
2026-05-04 22:39 56.30172 -128.56380 23081 ft 300 kts 314°
2026-05-04 22:39 56.31644 -128.59036 23081 ft 300 kts 314°
2026-05-04 22:39 56.33115 -128.61693 23078 ft 300 kts 314°
2026-05-04 22:39 56.34581 -128.64343 23076 ft 300 kts 314°
2026-05-04 22:40 56.36056 -128.67017 23076 ft 300 kts 313°
2026-05-04 22:40 56.37531 -128.69690 23080 ft 300 kts 313°
2026-05-04 22:40 56.38992 -128.72343 23080 ft 300 kts 313°
2026-05-04 22:40 56.40462 -128.75012 23073 ft 301 kts 313°
2026-05-04 22:41 56.41933 -128.77690 23079 ft 301 kts 313°
2026-05-04 22:41 56.43403 -128.80366 23079 ft 301 kts 313°
2026-05-04 22:41 56.44875 -128.83050 23086 ft 301 kts 313°
2026-05-04 22:41 56.46348 -128.85741 23091 ft 301 kts 313°
2026-05-04 22:42 56.47817 -128.88426 23090 ft 301 kts 313°
2026-05-04 22:42 56.49279 -128.91101 23092 ft 302 kts 313°
2026-05-04 22:42 56.50761 -128.93816 23091 ft 302 kts 313°
2026-05-04 22:42 56.52224 -128.96498 23093 ft 302 kts 313°
2026-05-04 22:43 56.53703 -128.99214 23090 ft 302 kts 313°
2026-05-04 22:43 56.55168 -129.01910 23096 ft 302 kts 313°
2026-05-04 22:43 56.56633 -129.04607 23095 ft 302 kts 313°
2026-05-04 22:43 56.58106 -129.07320 23098 ft 302 kts 313°
2026-05-04 22:44 56.59578 -129.10034 23094 ft 302 kts 313°
2026-05-04 22:44 56.61037 -129.12730 23091 ft 302 kts 313°
2026-05-04 22:44 56.62508 -129.15451 23091 ft 302 kts 313°
2026-05-04 22:44 56.63986 -129.18188 23092 ft 302 kts 313°
2026-05-04 22:45 56.65442 -129.20886 23093 ft 302 kts 313°
2026-05-04 22:45 56.68382 -129.26346 23090 ft 302 kts 313°
2026-05-04 22:45 56.69839 -129.29057 23093 ft 302 kts 313°
2026-05-04 22:46 56.71301 -129.31781 23092 ft 302 kts 313°
2026-05-04 22:46 56.72764 -129.34509 23094 ft 302 kts 313°
2026-05-04 22:46 56.74242 -129.37268 23093 ft 302 kts 313°
2026-05-04 22:46 56.75701 -129.39995 23098 ft 303 kts 313°
2026-05-04 22:47 56.77196 -129.42653 23090 ft 304 kts 318°
2026-05-04 22:47 56.78975 -129.44772 23102 ft 306 kts 327°
2026-05-04 22:47 56.80819 -129.46698 23097 ft 306 kts 327°
2026-05-04 22:47 56.82662 -129.48619 23094 ft 306 kts 327°
2026-05-04 22:48 56.84504 -129.50546 23091 ft 306 kts 327°
2026-05-04 22:48 56.86345 -129.52480 23092 ft 306 kts 327°
2026-05-04 22:48 56.88190 -129.54423 23097 ft 306 kts 327°
2026-05-04 22:48 56.90031 -129.56369 23100 ft 306 kts 327°
2026-05-04 22:49 56.91875 -129.58324 23098 ft 306 kts 327°
2026-05-04 22:49 56.93702 -129.60261 23098 ft 306 kts 326°
2026-05-04 22:49 56.95527 -129.62204 23099 ft 306 kts 327°
2026-05-04 22:49 56.97386 -129.64183 23099 ft 306 kts 327°
2026-05-04 22:50 56.99234 -129.66154 23103 ft 306 kts 326°
2026-05-04 22:50 57.01059 -129.68103 23093 ft 307 kts 326°
2026-05-04 22:50 57.02907 -129.70081 23086 ft 307 kts 326°
2026-05-04 22:50 57.04763 -129.72067 23091 ft 308 kts 326°
2026-05-04 22:51 57.06597 -129.74036 23092 ft 308 kts 326°
2026-05-04 22:51 57.08435 -129.76009 23086 ft 308 kts 326°
2026-05-04 22:51 57.10296 -129.78009 23091 ft 308 kts 326°